FW1465 Weather Reports


Display with metric or nautical units.
time (UTC)temp
F
wind
direction
speed
MPH
gust
MPH
rain 1hr
in
rain 24hr
in
rain mn
in
humidity
%
barometer
mb
20190320085517 47 0.0 0.0 0.00 0.00 0.00 62 1020.8
20190320084517 48 0.0 0.0 0.00 0.00 0.00 61 1020.8
20190320083517 48 0.0 0.0 0.00 0.00 0.00 60 1020.8
20190320082517 49 0.0 0.0 0.00 0.00 0.00 59 1020.9
20190320081517 49 0.0 0.0 0.00 0.00 0.00 58 1021.0
20190320080517 49 0.0 0.0 0.00 0.00 0.00 57 1020.9
20190320075517 50 0.0 0.0 0.00 0.00 0.00 57 1020.9
20190320074517 50 0.0 0.0 0.00 0.00 0.00 57 1020.9
20190320073517 51 0.0 0.0 0.00 0.00 0.00 55 1021.0
20190320072517 51 0.0 0.0 0.00 0.00 0.00 55 1021.0
20190320071517 51 0.0 0.0 0.00 0.00 0.00 54 1021.1
20190320070517 52 0.0 0.0 0.00 0.00 0.00 52 1021.2
20190320065517 52 0.0 0.0 0.00 0.00 0.00 51 1021.3
20190320064517 53 0.0 0.0 0.00 0.00 0.00 51 1021.3
20190320063517 53 0.0 0.0 0.00 0.00 0.00 51 1021.1
20190320062517 53 0.0 0.0 0.00 0.00 0.00 51 1021.2
20190320061517 53 0.0 0.0 0.00 0.00 0.00 51 1021.2
20190320060517 53 0.0 0.0 0.00 0.00 0.00 50 1021.2
20190320055518 53 0.0 0.0 0.00 0.00 0.00 50 1021.3
20190320054517 53 0.0 1.0 0.00 0.00 0.00 50 1021.3
20190320053517 53 0.0 0.0 0.00 0.00 0.00 51 1021.3
20190320052517 52 0.0 0.0 0.00 0.00 0.00 54 1021.4
20190320051517 51 0.0 0.0 0.00 0.00 0.00 56 1021.5
20190320050518 51 0.0 0.0 0.00 0.00 0.00 57 1021.4
20190320045516 51 0.0 0.0 0.00 0.00 0.00 56 1021.6
20190320044516 52 0.0 0.0 0.00 0.00 0.00 55 1021.6
20190320043516 52 0.0 0.0 0.00 0.00 0.00 54 1021.5
20190320042516 53 0.0 0.0 0.00 0.00 0.00 53 1021.5
20190320041516 53 0.0 0.0 0.00 0.00 0.00 51 1021.5
20190320040516 54 0.0 0.0 0.00 0.00 0.00 49 1021.5
20190320035516 55 0.0 0.0 0.00 0.00 0.00 47 1021.4
20190320034516 56 0.0 0.0 0.00 0.00 0.00 46 1021.4
20190320033516 57 0.0 0.0 0.00 0.00 0.00 45 1021.3
20190320032516 57 0.0 0.0 0.00 0.00 0.00 44 1021.3
20190320031516 57 0.0 0.0 0.00 0.00 0.00 44 1021.2
20190320030516 57 0.0 0.0 0.00 0.00 0.00 44 1021.1
20190320025516 58 0.0 0.0 0.00 0.00 0.00 43 1021.1
20190320024520 58 0.0 0.0 0.00 0.00 0.00 43 1021.0
20190320023516 59 0.0 0.0 0.00 0.00 0.00 42 1020.9
20190320022516 59 0.0 0.0 0.00 0.00 0.00 41 1020.8
20190320021518 59 0.0 0.0 0.00 0.00 0.00 40 1020.8
20190320020516 60 0.0 0.0 0.00 0.00 0.00 39 1020.6
20190320015516 60 0.0 0.0 0.00 0.00 0.00 38 1020.5
20190320014516 61 0.0 0.0 0.00 0.00 0.00 37 1020.4
20190320013516 62 0.0 0.0 0.00 0.00 0.00 36 1020.3
20190320012516 62 0.0 0.0 0.00 0.00 0.00 36 1020.3
20190320011516 63 0.0 0.0 0.00 0.00 0.00 35 1020.3
20190320010516 64 0.0 1.0 0.00 0.00 0.00 33 1020.2
20190320005516 64 0.0 1.0 0.00 0.00 0.00 32 1020.2
20190320004516 65 0.0 2.0 0.00 0.00 0.00 31 1020.1
20190320003517 65 0.0 2.0 0.00 0.00 0.00 31 1020.0
20190320002516 66 0.0 1.0 0.00 0.00 0.00 30 1020.0
20190320001516 67 0.0 3.0 0.00 0.00 0.00 30 1020.0
20190320000516 68 0.0 3.0 0.00 0.00 0.00 28 1020.0
20190319235516 68 0.0 4.0 0.00 0.00 0.00 28 1019.9
20190319234516 68 0.0 5.0 0.00 0.00 0.00 28 1020.0
20190319233516 68 90 1.0 6.0 0.00 0.00 0.00 28 1019.9
20190319232516 68 0.0 2.0 0.00 0.00 0.00 29 1020.0
20190319231516 68 0.0 4.0 0.00 0.00 0.00 28 1020.0
20190319230516 68 0.0 3.0 0.00 0.00 0.00 28 1019.9
20190319225516 68 0.0 3.0 0.00 0.00 0.00 26 1020.1
20190319224516 69 90 1.0 4.0 0.00 0.00 0.00 27 1020.2
20190319223516 71 90 1.0 6.0 0.00 0.00 0.00 25 1020.2
20190319222516 70 45 1.0 5.0 0.00 0.00 0.00 27 1020.4
20190319221515 69 67 1.0 4.0 0.00 0.00 0.00 26 1020.5
20190319220515 69 0.0 3.0 0.00 0.00 0.00 25 1020.5
20190319215520 69 112 1.0 6.0 0.00 0.00 0.00 26 1020.6
20190319214516 70 0.0 4.0 0.00 0.00 0.00 25 1020.6
20190319213516 70 112 1.0 6.0 0.00 0.00 0.00 24 1020.6
20190319212516 69 90 1.0 5.0 0.00 0.00 0.00 25 1020.9
20190319211516 69 0.0 4.0 0.00 0.00 0.00 26 1021.0
20190319210516 69 112 1.0 4.0 0.00 0.00 0.00 23 1021.1
20190319205515 69 0.0 4.0 0.00 0.00 0.00 24 1021.1
20190319204516 69 0.0 2.0 0.00 0.00 0.00 25 1021.2
20190319203516 70 112 2.0 9.0 0.00 0.00 0.00 23 1021.3
20190319202516 69 112 1.0 4.0 0.00 0.00 0.00 25 1021.3
20190319201516 70 112 1.0 5.0 0.00 0.00 0.00 25 1021.4
20190319200516 70 67 1.0 7.0 0.00 0.00 0.00 23 1021.5
20190319195515 70 112 1.0 5.0 0.00 0.00 0.00 23 1021.6
20190319194515 71 112 1.0 5.0 0.00 0.00 0.00 23 1021.5
20190319193516 70 67 1.0 8.0 0.00 0.00 0.00 24 1021.8
20190319192516 70 202 1.0 6.0 0.00 0.00 0.00 25 1022.1
20190319191515 70 90 1.0 6.0 0.00 0.00 0.00 26 1022.3
20190319190516 70 225 1.0 7.0 0.00 0.00 0.00 25 1022.6
20190319185516 70 112 2.0 10.0 0.00 0.00 0.00 25 1022.9
20190319184515 70 90 1.0 7.0 0.00 0.00 0.00 28 1023.0
20190319183515 70 112 1.0 5.0 0.00 0.00 0.00 28 1023.2
20190319182515 69 112 1.0 6.0 0.00 0.00 0.00 29 1023.4
20190319181516 69 90 1.0 7.0 0.00 0.00 0.00 28 1023.6
20190319180515 68 90 1.0 5.0 0.00 0.00 0.00 28 1023.7
20190319175516 68 112 2.0 9.0 0.00 0.00 0.00 27 1023.7
20190319174516 69 112 1.0 6.0 0.00 0.00 0.00 27 1023.7
20190319173516 69 67 1.0 6.0 0.00 0.00 0.00 26 1023.8
20190319172516 70 112 1.0 5.0 0.00 0.00 0.00 24 1023.9
20190319171516 69 0.0 4.0 0.00 0.00 0.00 25 1024.0
20190319170516 68 247 1.0 4.0 0.00 0.00 0.00 29 1024.1
20190319165516 68 0.0 2.0 0.00 0.00 0.00 26 1024.2
20190319164516 69 270 1.0 5.0 0.00 0.00 0.00 26 1024.3
20190319163516 69 135 1.0 5.0 0.00 0.00 0.00 26 1024.2
20190319162516 68 112 1.0 3.0 0.00 0.00 0.00 26 1024.1
20190319161516 67 0.0 3.0 0.00 0.00 0.00 30 1024.1
20190319160515 65 247 1.0 5.0 0.00 0.00 0.00 29 1024.1
20190319155516 64 247 1.0 6.0 0.00 0.00 0.00 28 1024.3
20190319154515 63 270 3.0 7.0 0.00 0.00 0.00 28 1024.3
20190319153516 64 0.0 3.0 0.00 0.00 0.00 30 1024.3
20190319152516 64 270 1.0 7.0 0.00 0.00 0.00 31 1024.3
20190319151519 64 0.0 3.0 0.00 0.00 0.00 30 1024.2
20190319150517 63 225 1.0 4.0 0.00 0.00 0.00 31 1024.2
20190319145518 63 270 3.0 8.0 0.00 0.00 0.00 34 1024.1
20190319144517 63 0.0 1.0 0.00 0.00 0.00 35 1024.1
20190319143518 61 247 1.0 6.0 0.00 0.00 0.00 39 1024.1
20190319142517 60 0.0 2.0 0.00 0.00 0.00 40 1024.0
20190319141518 58 0.0 1.0 0.00 0.00 0.00 42 1023.9
20190319140518 55 0.0 0.0 0.00 0.00 0.00 50 1023.8
20190319135517 53 0.0 0.0 0.00 0.00 0.00 65 1023.7
20190319134517 49 0.0 0.0 0.00 0.00 0.00 72 1023.6
20190319133517 47 0.0 0.0 0.00 0.00 0.00 70 1023.5
20190319132517 45 0.0 0.0 0.00 0.00 0.00 72 1023.4
20190319131517 43 0.0 0.0 0.00 0.00 0.00 73 1023.3
20190319130517 42 0.0 0.0 0.00 0.00 0.00 73 1023.3
20190319125518 42 0.0 0.0 0.00 0.00 0.00 72 1023.2
20190319124517 42 0.0 0.0 0.00 0.00 0.00 72 1023.2
20190319123517 42 0.0 0.0 0.00 0.00 0.00 72 1023.1
20190319122517 42 0.0 0.0 0.00 0.00 0.00 72 1023.1
20190319121517 42 0.0 0.0 0.00 0.00 0.00 71 1023.0
20190319120518 42 0.0 0.0 0.00 0.00 0.00 72 1023.0
20190319115517 43 0.0 0.0 0.00 0.00 0.00 71 1022.8
20190319114517 43 0.0 0.0 0.00 0.00 0.00 71 1022.8
20190319113518 43 0.0 0.0 0.00 0.00 0.00 71 1022.8
20190319112517 43 0.0 0.0 0.00 0.00 0.00 70 1022.7
20190319111517 43 0.0 0.0 0.00 0.00 0.00 70 1022.7
20190319110517 43 0.0 0.0 0.00 0.00 0.00 70 1022.7
20190319105517 43 0.0 0.0 0.00 0.00 0.00 70 1022.7
20190319104517 44 0.0 0.0 0.00 0.00 0.00 69 1022.6
20190319103517 44 0.0 0.0 0.00 0.00 0.00 69 1022.6
20190319102518 44 0.0 0.0 0.00 0.00 0.00 68 1022.4
20190319101517 44 0.0 0.0 0.00 0.00 0.00 69 1022.3
20190319100517 45 0.0 0.0 0.00 0.00 0.00 68 1022.2
20190319095517 45 0.0 0.0 0.00 0.00 0.00 68 1022.2
20190319094517 44 0.0 0.0 0.00 0.00 0.00 70 1022.3
20190319093517 45 0.0 0.0 0.00 0.00 0.00 68 1022.2
20190319092517 45 0.0 0.0 0.00 0.00 0.00 66 1022.3
20190319091517 46 0.0 0.0 0.00 0.00 0.00 65 1022.3
20190319090517 46 0.0 0.0 0.00 0.00 0.00 65 1022.3